DW1024 Weather Reports


Display with metric or nautical units.
time (UTC)temp
F
wind
direction
speed
MPH
gust
MPH
rain 1hr
in
rain 24hr
in
rain mn
in
humidity
%
barometer
mb
20260906024812 53 44 0.0 0.0 0.00 0.17 0.00 96 1027.5
20260906023311 53 44 0.0 0.0 0.00 0.17 0.00 96 1027.6
20260906020314 54 44 0.0 0.0 0.00 0.17 0.00 96 1027.6
20260906014814 55 44 0.0 0.0 0.00 0.17 0.00 96 1027.6
20260906011810 55 44 0.0 0.0 0.00 0.17 0.00 96 1027.6
20260906010315 54 44 0.0 0.0 0.00 0.17 0.00 95 1027.6
20260906004816 54 44 0.0 0.0 0.00 0.17 0.00 95 1027.5
20260906003311 55 44 0.0 0.0 0.00 0.17 0.00 95 1027.5
20260906001811 55 44 0.0 0.0 0.00 0.17 0.00 94 1027.5
20260906000312 56 44 0.0 2.0 0.00 0.17 0.00 95 1027.5
20260905234813 55 19 0.0 3.0 0.00 0.17 0.00 94 1027.5
20260905233307 56 268 0.0 0.0 0.00 0.17 0.00 94 1027.2
20260905230310 57 268 0.0 0.0 0.00 0.17 0.00 94 1027.2
20260905224808 56 268 0.0 0.0 0.00 0.17 0.00 93 1027.2
20260905223309 57 268 0.0 0.0 0.00 0.17 0.00 92 1027.0
20260905220303 58 268 0.0 1.0 0.00 0.17 0.00 92 1027.1
20260905214809 59 268 0.0 1.0 0.00 0.17 0.17 92 1027.1
20260905213303 58 268 0.0 0.0 0.00 0.17 0.17 91 1026.9
20260905211805 59 268 0.0 1.0 0.00 0.17 0.17 91 1027.0
20260905210306 60 268 0.0 1.0 0.00 0.17 0.17 90 1026.8
20260905204804 60 268 0.0 0.0 0.00 0.17 0.17 89 1026.7
20260905203308 61 268 0.0 1.0 0.00 0.17 0.17 87 1026.7
20260905201801 62 268 0.0 2.0 0.00 0.17 0.17 85 1026.6
20260905200302 63 268 0.0 2.0 0.00 0.17 0.17 84 1026.4
20260905193302 64 269 0.0 4.0 0.00 0.17 0.17 82 1026.2
20260905191803 65 271 1.0 5.0 0.00 0.17 0.17 81 1026.0
20260905184803 67 306 1.0 6.0 0.00 0.17 0.17 82 1025.4
20260905183311 67 263 2.0 7.0 0.00 0.17 0.17 84 1025.2
20260905181802 68 231 1.0 5.0 0.00 0.17 0.17 84 1025.0
20260905180303 68 214 1.0 6.0 0.00 0.17 0.17 84 1024.8
20260905174801 68 267 2.0 6.0 0.00 0.17 0.17 83 1024.5
20260905173309 69 270 1.0 6.0 0.00 0.17 0.17 82 1024.4
20260905171802 70 219 2.0 8.0 0.00 0.17 0.17 79 1024.3
20260905170301 71 238 2.0 6.0 0.00 0.17 0.17 72 1024.3
20260905164801 72 248 2.0 7.0 0.00 0.17 0.17 71 1024.2
20260905163306 72 220 2.0 7.0 0.00 0.17 0.17 73 1024.2
20260905161803 72 193 3.0 8.0 0.00 0.17 0.17 72 1024.2
20260905160302 73 213 3.0 9.0 0.00 0.17 0.17 71 1024.2
20260905153301 73 265 2.0 9.0 0.00 0.17 0.17 70 1024.3
20260905151802 74 166 3.0 10.0 0.00 0.17 0.17 67 1024.2
20260905150301 74 309 3.0 10.0 0.00 0.17 0.17 65 1024.2
20260905144807 74 267 3.0 9.0 0.00 0.17 0.17 64 1024.2
20260905143301 73 236 3.0 8.0 0.00 0.17 0.17 66 1024.2
20260905141801 73 242 3.0 8.0 0.00 0.17 0.17 66 1024.2
20260905140301 73 213 3.0 8.0 0.00 0.17 0.17 64 1024.3
20260905134802 73 298 4.0 11.0 0.00 0.17 0.17 63 1024.5
20260905133755 72 213 3.0 10.0 0.00 0.17 0.17 68 1024.6
20260905133114 72 221 3.0 9.0 0.00 0.17 0.17 70 1024.8
20260905130308 70 216 3.0 10.0 0.00 0.17 0.17 72 1024.8
20260905124805 70 204 4.0 9.0 0.00 0.17 0.17 73 1024.8
20260905123303 69 313 4.0 11.0 0.00 0.17 0.17 77 1024.7
20260905121803 67 231 3.0 8.0 0.00 0.17 0.17 82 1024.8
20260905120302 66 329 3.0 9.0 0.00 0.17 0.17 83 1024.7
20260905114803 66 254 2.0 7.0 0.00 0.17 0.17 84 1024.7
20260905113304 65 264 2.0 7.0 0.00 0.17 0.17 85 1024.7
20260905111803 65 229 2.0 6.0 0.00 0.17 0.17 85 1024.8
20260905110304 65 194 2.0 8.0 0.00 0.17 0.17 88 1024.4
20260905104803 64 119 2.0 6.0 0.00 0.17 0.17 89 1024.5
20260905101804 62 218 1.0 4.0 0.01 0.17 0.17 90 1024.5
20260905100304 62 161 1.0 4.0 0.01 0.17 0.17 90 1024.6
20260905094804 62 159 0.0 3.0 0.01 0.17 0.17 90 1024.3
20260905090304 62 248 1.0 4.0 0.00 0.16 0.16 88 1024.2
20260905084801 62 229 1.0 2.0 0.00 0.16 0.16 88 1024.1
20260905083302 62 259 0.0 2.0 0.00 0.16 0.16 89 1024.1
20260905081804 61 226 0.0 2.0 0.00 0.16 0.16 88 1024.2
20260905080303 62 226 0.0 2.0 0.00 0.16 0.16 89 1024.1
20260905074803 61 226 0.0 1.0 0.00 0.16 0.16 91 1024.1
20260905073302 61 226 1.0 2.0 0.00 0.16 0.16 92 1023.9
20260905070305 60 255 0.0 1.0 0.01 0.16 0.16 93 1023.9
20260905064803 60 255 0.0 3.0 0.04 0.16 0.16 93 1023.9
20260905063305 59 157 1.0 3.0 0.04 0.16 0.16 92 1023.3
20260905061803 60 200 0.0 3.0 0.04 0.16 0.16 92 1023.0
20260905054811 60 59 0.0 1.0 0.01 0.12 0.12 91 1023.1
20260905053301 60 59 0.0 2.0 0.03 0.12 0.12 90 1023.0
20260905051805 60 59 0.0 1.0 0.12 0.12 0.12 91 1023.0
20260905050302 60 59 0.0 2.0 0.11 0.11 0.11 89 1022.9
20260905043303 63 38 2.0 4.0 0.09 0.09 0.02 75 1022.3
20260905040305 65 159 2.0 5.0 0.00 0.00 0.00 65 1021.6
20260905033302 66 84 3.0 9.0 0.00 0.00 0.00 65 1020.6
20260905030304 67 189 3.0 10.0 0.00 0.00 0.00 68 1020.1